SL-16 DEB, 22363

Orbit data source: Space-Track

SL-16 DEB, 22363 is space debris in LEO originally from a launch on Fri, 25 Dec 1992 UTC launched from the Tyuratam Missile And Space Complex (TTMTR). Debris objects in space refer to the collection of defunct objects orbiting the Earth. Examples of debris include non-operational satellites, rocket bodies, and fragments generated from explosions, collisions, or faulty payload assembly.

Loading next visibility...
Identifier
22363, 1992-093BC
Orbit
LEO
Country
Flag of CISCIS
Related business
Manufacturer
Unknown
Mission
Spacecraft
Bus & Motor
Unknown
Mass
Unknown
Launch date (UTC)
1992-12-25 (33 years ago)
Launch vehicle
Unknown
Launch site
Tyuratam Missile And Space Complex (TTMTR)
Object type
Payload
Rocket body
Debris
Shape & HBR
Unknown shape, 0.1 m
Radar Cross Section
Small (<0.1 m²)

Expand to show TLE details & history
Last TLE update: 1 day ago

TLE from 1 day ago
0 SL-16 DEB
1 22363U 92093BC  25305.64960340  .00000433  00000-0  33009-3 0  9994
2 22363  71.0342 183.4698 0141904  58.7988 302.6943 13.94253778666417
Epoch: 2025-11-01T15:35Z
TLE epoch observation values (Epoch: 2025-11-01T15:35:25.733Z)
Latitude
-0.00004°
Longitude
-91.56408°
Altitude
861.292 km
Speed
7.45 km/s
True Right ascension
12h 13m 52s
True Declination
0° 00' 00"
Sunlit
Object was in daylight at epoch
Visualization orbit readout
Latitude
Unknown
Longitude
Unknown
Altitude
Unknown
Speed
Unknown
Apparent Right ascension
Unknown
Apparent Declination
Unknown
Sunlit
N/A
Visualization observer readout
Local Sidereal Time
12:19:51
Azimuth
Unknown
Elevation
Unknown
Doppler factor
Unknown
Orbital elements
Apogee altitude
1,015.149 km
Perigee altitude
808.257 km
Semi-major axis
7,289.84 km
Eccentricity
0.01419
Inclination
71.0342°
RAAN
183.4698°
Arg. of periapsis
58.7988°
True anomaly
301.31273°
Mean anomaly
302.6943°
Eccentric anomaly
302.00483°
Mean motion
3.48711 °/min
Orbital period
103.24 mins
BSTAR
0.00033009
Loading maneuver chart data...
Computing Atmospheric mass density...
Loading historical data...
Loading historical data...
Loading historical data...
Loading historical data...
Loading historical data...
Loading historical data...
Loading historical data...

Documentation

Showing up to 5 results
|